owner,sensor,date,latitude,longitude,vertical_datum,direction_of_sea_water_velocity,sea_water_speed,upward_sea_water_velocity,qcFlag 
TABS,ioos:station:wmo:42044:1,2001-12-01T00:00:00Z,26.1914,-97.0507,2.0,343.1635629,18.36732969,-99999.0,'11111222,11111222,99999999' 
TABS,ioos:station:wmo:42044:1,2001-12-01T00:30:00Z,26.1914,-97.0507,2.0,344.5245414,20.27510049,-99999.0,'11111222,11111222,99999999' 
TABS,ioos:station:wmo:42044:1,2001-12-01T01:00:00Z,26.1914,-97.0507,2.0,344.3683428,17.07142642,-99999.0,'11111222,11111222,99999999' 
TABS,ioos:station:wmo:42044:1,2001-12-01T01:30:00Z,26.1914,-97.0507,2.0,348.6641659,17.19546452,-99999.0,'11111222,11111222,99999999' 
TABS,ioos:station:wmo:42044:1,2001-12-01T02:00:00Z,26.1914,-97.0507,2.0,344.5042832,19.6129447,-99999.0,'11111222,11111222,99999999' 
TABS,ioos:station:wmo:42044:1,2001-12-01T02:30:00Z,26.1914,-97.0507,2.0,344.6451351,19.5996454,-99999.0,'11111222,11111222,99999999' 
TABS,ioos:station:wmo:42044:1,2001-12-01T03:00:00Z,26.1914,-97.0507,2.0,343.3246861,18.53968716,-99999.0,'11111222,11111222,99999999' 
TABS,ioos:station:wmo:42044:1,2001-12-01T03:30:00Z,26.1914,-97.0507,2.0,343.1530504,19.28781221,-99999.0,'11111222,11111222,99999999' 
TABS,ioos:station:wmo:42044:1,2001-12-01T04:00:00Z,26.1914,-97.0507,2.0,344.4418598,17.89574251,-99999.0,'11111222,11111222,99999999' 
TABS,ioos:station:wmo:42044:1,2001-12-01T04:30:00Z,26.1914,-97.0507,2.0,347.8201535,17.82116719,-99999.0,'11111222,11111222,99999999' 
TABS,ioos:station:wmo:42044:1,2001-12-01T05:00:00Z,26.1914,-97.0507,2.0,355.4431066,13.59297245,-99999.0,'11111222,11111222,99999999' 
TABS,ioos:station:wmo:42044:1,2001-12-01T05:30:00Z,26.1914,-97.0507,2.0,342.6249061,12.82522904,-99999.0,'11111222,11111222,99999999' 
TABS,ioos:station:wmo:42044:1,2001-12-01T06:00:00Z,26.1914,-97.0507,2.0,342.3128923,13.33013503,-99999.0,'11111222,11111222,99999999' 
TABS,ioos:station:wmo:42044:1,2001-12-01T06:30:00Z,26.1914,-97.0507,2.0,344.0603237,14.38302472,-99999.0,'11111222,11111222,99999999' 
TABS,ioos:station:wmo:42044:1,2001-12-01T07:00:00Z,26.1914,-97.0507,2.0,345.6013102,13.79327735,-99999.0,'11111222,11111222,99999999' 
TABS,ioos:station:wmo:42044:1,2001-12-01T07:30:00Z,26.1914,-97.0507,2.0,344.4382286,13.75422117,-99999.0,'11111222,11111222,99999999' 
TABS,ioos:station:wmo:42044:1,2001-12-01T08:00:00Z,26.1914,-97.0507,2.0,335.2369737,13.51253122,-99999.0,'11111222,11111222,99999999' 
TABS,ioos:station:wmo:42044:1,2001-12-01T08:30:00Z,26.1914,-97.0507,2.0,336.1457849,12.38826057,-99999.0,'11111222,11111222,99999999' 
TABS,ioos:station:wmo:42044:1,2001-12-01T09:00:00Z,26.1914,-97.0507,2.0,337.6622301,11.10321125,-99999.0,'11111222,11111222,99999999' 
TABS,ioos:station:wmo:42044:1,2001-12-01T09:30:00Z,26.1914,-97.0507,2.0,347.4942408,8.173940298,-99999.0,'11133222,11111222,99999999' 
TABS,ioos:station:wmo:42044:1,2001-12-01T10:00:00Z,26.1914,-97.0507,2.0,336.5773775,6.037516046,-99999.0,'11133222,11111222,99999999' 
TABS,ioos:station:wmo:42044:1,2001-12-01T10:30:00Z,26.1914,-97.0507,2.0,14.7991445,4.737140488,-99999.0,'11133222,11111222,99999999' 
TABS,ioos:station:wmo:42044:1,2001-12-01T11:00:00Z,26.1914,-97.0507,2.0,16.43128527,3.888817301,-99999.0,'11133222,11111222,99999999' 
TABS,ioos:station:wmo:42044:1,2001-12-01T11:30:00Z,26.1914,-97.0507,2.0,42.25401757,9.740975311,-99999.0,'11133222,11111222,99999999' 
TABS,ioos:station:wmo:42044:1,2001-12-01T12:00:00Z,26.1914,-97.0507,2.0,58.97691139,6.616418971,-99999.0,'11133222,11111222,99999999' 
TABS,ioos:station:wmo:42044:1,2001-12-01T12:30:00Z,26.1914,-97.0507,2.0,72.63510561,6.265564619,-99999.0,'11133222,11111222,99999999' 
TABS,ioos:station:wmo:42044:1,2001-12-01T13:00:00Z,26.1914,-97.0507,2.0,106.7291519,7.330245562,-99999.0,'11133222,11111222,99999999' 
TABS,ioos:station:wmo:42044:1,2001-12-01T13:30:00Z,26.1914,-97.0507,2.0,89.1867095,6.340638769,-99999.0,'11133222,11111222,99999999' 
TABS,ioos:station:wmo:42044:1,2001-12-01T14:00:00Z,26.1914,-97.0507,2.0,115.4058852,7.295546587,-99999.0,'11133222,11111222,99999999' 
TABS,ioos:station:wmo:42044:1,2001-12-01T14:30:00Z,26.1914,-97.0507,2.0,133.788385,7.023140323,-99999.0,'11133222,11111222,99999999' 
TABS,ioos:station:wmo:42044:1,2001-12-01T15:30:00Z,26.1914,-97.0507,2.0,145.1699494,3.76438574,-99999.0,'11133222,11111222,99999999' 
TABS,ioos:station:wmo:42044:1,2001-12-01T16:00:00Z,26.1914,-97.0507,2.0,187.6665759,3.148142309,-99999.0,'11133222,11111222,99999999' 
TABS,ioos:station:wmo:42044:1,2001-12-01T16:30:00Z,26.1914,-97.0507,2.0,181.4514153,5.131646909,-99999.0,'11133222,11111222,99999999' 
TABS,ioos:station:wmo:42044:1,2001-12-01T17:00:00Z,26.1914,-97.0507,2.0,178.7928969,7.121579881,-99999.0,'11133222,11111222,99999999' 
TABS,ioos:station:wmo:42044:1,2001-12-01T17:30:00Z,26.1914,-97.0507,2.0,181.225178,5.611283276,-99999.0,'11133222,11111222,99999999' 
TABS,ioos:station:wmo:42044:1,2001-12-01T18:00:00Z,26.1914,-97.0507,2.0,240.8402499,8.496822936,-99999.0,'11133222,11111222,99999999' 
TABS,ioos:station:wmo:42044:1,2001-12-01T18:30:00Z,26.1914,-97.0507,2.0,239.9709784,11.76980034,-99999.0,'11111222,11111222,99999999' 
TABS,ioos:station:wmo:42044:1,2001-12-01T19:00:00Z,26.1914,-97.0507,2.0,247.2723858,14.36540984,-99999.0,'11111222,11111222,99999999' 
TABS,ioos:station:wmo:42044:1,2001-12-01T19:30:00Z,26.1914,-97.0507,2.0,256.9733856,10.86971021,-99999.0,'11111222,11111222,99999999' 
TABS,ioos:station:wmo:42044:1,2001-12-01T20:00:00Z,26.1914,-97.0507,2.0,256.0538828,10.74676696,-99999.0,'11111222,11111222,99999999' 
TABS,ioos:station:wmo:42044:1,2001-12-01T20:30:00Z,26.1914,-97.0507,2.0,236.1964538,9.832080146,-99999.0,'11133222,11111222,99999999' 
TABS,ioos:station:wmo:42044:1,2001-12-01T21:00:00Z,26.1914,-97.0507,2.0,247.0973068,12.95092661,-99999.0,'11111222,11111222,99999999' 
TABS,ioos:station:wmo:42044:1,2001-12-01T21:30:00Z,26.1914,-97.0507,2.0,242.798813,10.47885967,-99999.0,'11111222,11111222,99999999' 
TABS,ioos:station:wmo:42044:1,2001-12-01T22:00:00Z,26.1914,-97.0507,2.0,236.7138876,11.00552588,-99999.0,'11111222,11111222,99999999' 
TABS,ioos:station:wmo:42044:1,2001-12-01T22:30:00Z,26.1914,-97.0507,2.0,242.9615717,8.667294849,-99999.0,'11133222,11111222,99999999' 
TABS,ioos:station:wmo:42044:1,2001-12-01T23:00:00Z,26.1914,-97.0507,2.0,242.2144619,13.02134018,-99999.0,'11111222,11111222,99999999' 
TABS,ioos:station:wmo:42044:1,2001-12-01T23:30:00Z,26.1914,-97.0507,2.0,243.8271613,12.4015241,-99999.0,'11111222,11111222,99999999' 
TABS,ioos:station:wmo:42044:1,2001-12-02T00:30:00Z,26.1914,-97.0507,2.0,230.4299892,11.50677192,-99999.0,'11111222,11111222,99999999' 
TABS,ioos:station:wmo:42044:1,2001-12-02T01:00:00Z,26.1914,-97.0507,2.0,230.1513686,8.583594818,-99999.0,'11133222,11111222,99999999' 
TABS,ioos:station:wmo:42044:1,2001-12-02T01:30:00Z,26.1914,-97.0507,2.0,217.723919,10.9992227,-99999.0,'11111222,11111222,99999999' 
TABS,ioos:station:wmo:42044:1,2001-12-02T02:00:00Z,26.1914,-97.0507,2.0,226.7845235,9.989194162,-99999.0,'11133222,11111222,99999999' 
TABS,ioos:station:wmo:42044:1,2001-12-02T02:30:00Z,26.1914,-97.0507,2.0,213.5897111,11.11620889,-99999.0,'11111222,11111222,99999999' 
TABS,ioos:station:wmo:42044:1,2001-12-02T03:00:00Z,26.1914,-97.0507,2.0,213.3145559,9.740744325,-99999.0,'11133222,11111222,99999999' 
TABS,ioos:station:wmo:42044:1,2001-12-02T03:30:00Z,26.1914,-97.0507,2.0,226.5005369,9.718981428,-99999.0,'11133222,11111222,99999999' 
TABS,ioos:station:wmo:42044:1,2001-12-02T04:00:00Z,26.1914,-97.0507,2.0,243.2685849,10.80472582,-99999.0,'11111222,11111222,99999999' 
TABS,ioos:station:wmo:42044:1,2001-12-02T04:30:00Z,26.1914,-97.0507,2.0,265.343426,14.16675333,-99999.0,'11111222,11111222,99999999' 
TABS,ioos:station:wmo:42044:1,2001-12-02T05:00:00Z,26.1914,-97.0507,2.0,265.8281901,12.37277657,-99999.0,'11111222,11111222,99999999' 
TABS,ioos:station:wmo:42044:1,2001-12-02T05:30:00Z,26.1914,-97.0507,2.0,273.091265,9.644029241,-99999.0,'11133222,11111222,99999999' 
TABS,ioos:station:wmo:42044:1,2001-12-02T06:00:00Z,26.1914,-97.0507,2.0,274.2609939,10.49901424,-99999.0,'11111222,11111222,99999999' 
TABS,ioos:station:wmo:42044:1,2001-12-02T06:30:00Z,26.1914,-97.0507,2.0,290.8616568,7.469672014,-99999.0,'11133222,11111222,99999999' 
TABS,ioos:station:wmo:42044:1,2001-12-02T07:00:00Z,26.1914,-97.0507,2.0,283.639874,9.456690753,-99999.0,'11133222,11111222,99999999' 
TABS,ioos:station:wmo:42044:1,2001-12-02T07:30:00Z,26.1914,-97.0507,2.0,278.2598396,8.77097486,-99999.0,'11133222,11111222,99999999' 
TABS,ioos:station:wmo:42044:1,2001-12-02T08:00:00Z,26.1914,-97.0507,2.0,295.2048587,9.04073559,-99999.0,'11133222,11111222,99999999' 
TABS,ioos:station:wmo:42044:1,2001-12-02T08:30:00Z,26.1914,-97.0507,2.0,304.5427793,5.220306504,-99999.0,'11133222,11111222,99999999' 
TABS,ioos:station:wmo:42044:1,2001-12-02T09:00:00Z,26.1914,-97.0507,2.0,299.2427523,6.223061947,-99999.0,'11133222,11111222,99999999' 
TABS,ioos:station:wmo:42044:1,2001-12-02T09:30:00Z,26.1914,-97.0507,2.0,324.4243762,5.225332525,-99999.0,'11133222,11111222,99999999' 
TABS,ioos:station:wmo:42044:1,2001-12-02T10:00:00Z,26.1914,-97.0507,2.0,323.130399,2.55,-99999.0,'11133222,11111222,99999999' 
TABS,ioos:station:wmo:42044:1,2001-12-02T10:30:00Z,26.1914,-97.0507,2.0,302.2340544,4.255925281,-99999.0,'11133222,11111222,99999999' 
TABS,ioos:station:wmo:42044:1,2001-12-02T11:00:00Z,26.1914,-97.0507,2.0,326.1365991,3.661038104,-99999.0,'11133222,11111222,99999999' 
TABS,ioos:station:wmo:42044:1,2001-12-02T11:30:00Z,26.1914,-97.0507,2.0,332.0442098,2.026474772,-99999.0,'11133222,11111222,99999999' 
TABS,ioos:station:wmo:42044:1,2001-12-02T12:00:00Z,26.1914,-97.0507,2.0,344.4436675,2.833813685,-99999.0,'11133222,11111222,99999999' 
TABS,ioos:station:wmo:42044:1,2001-12-02T12:30:00Z,26.1914,-97.0507,2.0,17.51242567,2.160115738,-99999.0,'11133222,11111222,99999999' 
TABS,ioos:station:wmo:42044:1,2001-12-02T13:00:00Z,26.1914,-97.0507,2.0,237.9942707,1.320757358,-99999.0,'11133222,11111222,99999999' 
TABS,ioos:station:wmo:42044:1,2001-12-02T13:30:00Z,26.1914,-97.0507,2.0,55.69229238,2.058057336,-99999.0,'11133222,11111222,99999999' 
TABS,ioos:station:wmo:42044:1,2001-12-02T14:00:00Z,26.1914,-97.0507,2.0,103.5304615,5.770147312,-99999.0,'11133222,11111222,99999999' 
TABS,ioos:station:wmo:42044:1,2001-12-02T14:30:00Z,26.1914,-97.0507,2.0,114.8665361,4.375671377,-99999.0,'11133222,11111222,99999999' 
TABS,ioos:station:wmo:42044:1,2001-12-02T15:30:00Z,26.1914,-97.0507,2.0,121.4294921,9.070859937,-99999.0,'11133222,11111222,99999999' 
TABS,ioos:station:wmo:42044:1,2001-12-02T16:00:00Z,26.1914,-97.0507,2.0,130.1522443,11.21239493,-99999.0,'11111222,11111222,99999999' 
TABS,ioos:station:wmo:42044:1,2001-12-02T16:30:00Z,26.1914,-97.0507,2.0,129.2928806,11.30610897,-99999.0,'11111222,11111222,99999999' 
TABS,ioos:station:wmo:42044:1,2001-12-02T17:00:00Z,26.1914,-97.0507,2.0,127.8920034,14.68633719,-99999.0,'11111222,11111222,99999999' 
TABS,ioos:station:wmo:42044:1,2001-12-02T17:30:00Z,26.1914,-97.0507,2.0,143.0083476,15.07403397,-99999.0,'11111222,11111222,99999999' 
TABS,ioos:station:wmo:42044:1,2001-12-02T18:00:00Z,26.1914,-97.0507,2.0,137.6634005,18.4117381,-99999.0,'11111222,11111222,99999999' 
TABS,ioos:station:wmo:42044:1,2001-12-02T18:30:00Z,26.1914,-97.0507,2.0,144.8703019,18.76865738,-99999.0,'11111222,11111222,99999999' 
TABS,ioos:station:wmo:42044:1,2001-12-02T19:00:00Z,26.1914,-97.0507,2.0,144.1985132,19.19733836,-99999.0,'11111222,11111222,99999999' 
TABS,ioos:station:wmo:42044:1,2001-12-02T19:30:00Z,26.1914,-97.0507,2.0,144.1842741,19.89136747,-99999.0,'11111222,11111222,99999999' 
TABS,ioos:station:wmo:42044:1,2001-12-02T20:00:00Z,26.1914,-97.0507,2.0,141.102391,18.82378549,-99999.0,'11111222,11111222,99999999' 
TABS,ioos:station:wmo:42044:1,2001-12-02T20:30:00Z,26.1914,-97.0507,2.0,153.7509447,21.07302541,-99999.0,'11111222,11111222,99999999' 
TABS,ioos:station:wmo:42044:1,2001-12-02T21:00:00Z,26.1914,-97.0507,2.0,153.0028261,24.32016653,-99999.0,'11111222,11111222,99999999' 
TABS,ioos:station:wmo:42044:1,2001-12-02T21:30:00Z,26.1914,-97.0507,2.0,157.9793362,25.73756204,-99999.0,'11111222,11111222,99999999' 
TABS,ioos:station:wmo:42044:1,2001-12-02T22:00:00Z,26.1914,-97.0507,2.0,164.5455244,25.48132061,-99999.0,'11111222,11111222,99999999' 
TABS,ioos:station:wmo:42044:1,2001-12-02T22:30:00Z,26.1914,-97.0507,2.0,167.7999256,26.26311863,-99999.0,'11111222,11111222,99999999' 
TABS,ioos:station:wmo:42044:1,2001-12-02T23:00:00Z,26.1914,-97.0507,2.0,169.5489414,28.77739391,-99999.0,'11111222,11111222,99999999' 
TABS,ioos:station:wmo:42044:1,2001-12-02T23:30:00Z,26.1914,-97.0507,2.0,171.0611238,28.9617351,-99999.0,'11111222,11111222,99999999' 
TABS,ioos:station:wmo:42044:1,2001-12-03T00:00:00Z,26.1914,-97.0507,2.0,173.5250308,29.61892132,-99999.0,'11111222,11111222,99999999' 
TABS,ioos:station:wmo:42044:1,2001-12-03T00:30:00Z,26.1914,-97.0507,2.0,177.2766623,34.30874233,-99999.0,'11111222,11111222,99999999' 
TABS,ioos:station:wmo:42044:1,2001-12-03T01:00:00Z,26.1914,-97.0507,2.0,181.2527592,31.09743559,-99999.0,'11111222,11111222,99999999' 
TABS,ioos:station:wmo:42044:1,2001-12-03T01:30:00Z,26.1914,-97.0507,2.0,186.4275357,32.5143922,-99999.0,'11111222,11111222,99999999' 
TABS,ioos:station:wmo:42044:1,2001-12-03T02:00:00Z,26.1914,-97.0507,2.0,183.7836254,31.51870714,-99999.0,'11111222,11111222,99999999' 
TABS,ioos:station:wmo:42044:1,2001-12-03T02:30:00Z,26.1914,-97.0507,2.0,187.2279625,33.06275246,-99999.0,'11111222,11111222,99999999' 
TABS,ioos:station:wmo:42044:1,2001-12-03T03:00:00Z,26.1914,-97.0507,2.0,186.6041127,36.17002212,-99999.0,'11111222,11111222,99999999' 
TABS,ioos:station:wmo:42044:1,2001-12-03T03:30:00Z,26.1914,-97.0507,2.0,183.9727423,34.0618555,-99999.0,'11111222,11111222,99999999' 
TABS,ioos:station:wmo:42044:1,2001-12-03T04:00:00Z,26.1914,-97.0507,2.0,182.8868704,35.93561186,-99999.0,'11111222,11111222,99999999' 
TABS,ioos:station:wmo:42044:1,2001-12-03T04:30:00Z,26.1914,-97.0507,2.0,182.0288438,35.02195883,-99999.0,'11111222,11111222,99999999' 
TABS,ioos:station:wmo:42044:1,2001-12-03T05:00:00Z,26.1914,-97.0507,2.0,179.5141162,37.75135627,-99999.0,'11111222,11111222,99999999' 
TABS,ioos:station:wmo:42044:1,2001-12-03T05:30:00Z,26.1914,-97.0507,2.0,180.341293,36.91065564,-99999.0,'11111222,11111222,99999999' 
TABS,ioos:station:wmo:42044:1,2001-12-03T06:00:00Z,26.1914,-97.0507,2.0,179.2315032,36.54328529,-99999.0,'11111222,11111222,99999999' 
TABS,ioos:station:wmo:42044:1,2001-12-03T06:30:00Z,26.1914,-97.0507,2.0,180.7919193,35.44338725,-99999.0,'11111222,11111222,99999999' 
TABS,ioos:station:wmo:42044:1,2001-12-03T07:00:00Z,26.1914,-97.0507,2.0,179.3532515,34.56220045,-99999.0,'11111222,11111222,99999999' 
TABS,ioos:station:wmo:42044:1,2001-12-03T07:30:00Z,26.1914,-97.0507,2.0,185.0971025,35.79154788,-99999.0,'11111222,11111222,99999999' 
TABS,ioos:station:wmo:42044:1,2001-12-03T08:00:00Z,26.1914,-97.0507,2.0,182.4548022,33.15042684,-99999.0,'11111222,11111222,99999999' 
TABS,ioos:station:wmo:42044:1,2001-12-03T08:30:00Z,26.1914,-97.0507,2.0,182.3841275,29.8058048,-99999.0,'11111222,11111222,99999999' 
TABS,ioos:station:wmo:42044:1,2001-12-03T09:00:00Z,26.1914,-97.0507,2.0,179.9403337,28.91001557,-99999.0,'11111222,11111222,99999999' 
TABS,ioos:station:wmo:42044:1,2001-12-03T09:30:00Z,26.1914,-97.0507,2.0,179.6460023,30.7705866,-99999.0,'11111222,11111222,99999999' 
TABS,ioos:station:wmo:42044:1,2001-12-03T10:00:00Z,26.1914,-97.0507,2.0,180.6869902,29.18209896,-99999.0,'11111222,11111222,99999999' 
TABS,ioos:station:wmo:42044:1,2001-12-03T10:30:00Z,26.1914,-97.0507,2.0,180.1995643,28.68017434,-99999.0,'11111222,11111222,99999999' 
TABS,ioos:station:wmo:42044:1,2001-12-03T11:00:00Z,26.1914,-97.0507,2.0,177.6361242,25.70186764,-99999.0,'11111222,11111222,99999999' 
TABS,ioos:station:wmo:42044:1,2001-12-03T11:30:00Z,26.1914,-97.0507,2.0,168.8221651,25.48339852,-99999.0,'11111222,11111222,99999999' 
TABS,ioos:station:wmo:42044:1,2001-12-03T12:00:00Z,26.1914,-97.0507,2.0,169.8145779,25.27835635,-99999.0,'11111222,11111222,99999999' 
TABS,ioos:station:wmo:42044:1,2001-12-03T12:30:00Z,26.1914,-97.0507,2.0,171.6731265,26.79243363,-99999.0,'11111222,11111222,99999999' 
TABS,ioos:station:wmo:42044:1,2001-12-03T13:00:00Z,26.1914,-97.0507,2.0,166.4326281,23.70137549,-99999.0,'11111222,11111222,99999999' 
TABS,ioos:station:wmo:42044:1,2001-12-03T13:30:00Z,26.1914,-97.0507,2.0,160.1329764,24.42357263,-99999.0,'11111222,11111222,99999999' 
TABS,ioos:station:wmo:42044:1,2001-12-03T14:00:00Z,26.1914,-97.0507,2.0,165.9324484,26.78321303,-99999.0,'11111222,11111222,99999999' 
TABS,ioos:station:wmo:42044:1,2001-12-03T14:30:00Z,26.1914,-97.0507,2.0,164.5390491,26.63379244,-99999.0,'11111222,11111222,99999999' 
TABS,ioos:station:wmo:42044:1,2001-12-03T15:00:00Z,26.1914,-97.0507,2.0,171.2711698,27.34672558,-99999.0,'11111222,11111222,99999999' 
TABS,ioos:station:wmo:42044:1,2001-12-03T15:30:00Z,26.1914,-97.0507,2.0,172.9223474,25.40356274,-99999.0,'11111222,11111222,99999999' 
TABS,ioos:station:wmo:42044:1,2001-12-03T16:00:00Z,26.1914,-97.0507,2.0,174.736355,28.56042717,-99999.0,'11111222,11111222,99999999' 
TABS,ioos:station:wmo:42044:1,2001-12-03T16:30:00Z,26.1914,-97.0507,2.0,165.0075952,24.27634445,-99999.0,'11111222,11111222,99999999' 
TABS,ioos:station:wmo:42044:1,2001-12-03T17:00:00Z,26.1914,-97.0507,2.0,163.2071704,21.73693861,-99999.0,'11111222,11111222,99999999' 
TABS,ioos:station:wmo:42044:1,2001-12-03T17:30:00Z,26.1914,-97.0507,2.0,177.0408772,19.56608545,-99999.0,'11111222,11111222,99999999' 
TABS,ioos:station:wmo:42044:1,2001-12-03T18:00:00Z,26.1914,-97.0507,2.0,175.4864993,21.85777894,-99999.0,'11111222,11111222,99999999' 
TABS,ioos:station:wmo:42044:1,2001-12-03T18:30:00Z,26.1914,-97.0507,2.0,187.7637597,21.91085804,-99999.0,'11111222,11111222,99999999' 
TABS,ioos:station:wmo:42044:1,2001-12-03T19:00:00Z,26.1914,-97.0507,2.0,185.7896093,22.30377995,-99999.0,'11111222,11111222,99999999' 
TABS,ioos:station:wmo:42044:1,2001-12-03T19:30:00Z,26.1914,-97.0507,2.0,185.3564873,20.13794677,-99999.0,'11111222,11111222,99999999' 
TABS,ioos:station:wmo:42044:1,2001-12-03T20:00:00Z,26.1914,-97.0507,2.0,196.3097683,17.48360661,-99999.0,'11111222,11111222,99999999' 
TABS,ioos:station:wmo:42044:1,2001-12-03T20:30:00Z,26.1914,-97.0507,2.0,195.8520465,18.59727131,-99999.0,'11111222,11111222,99999999' 
TABS,ioos:station:wmo:42044:1,2001-12-03T21:00:00Z,26.1914,-97.0507,2.0,193.6414194,17.25681894,-99999.0,'11111222,11111222,99999999' 
TABS,ioos:station:wmo:42044:1,2001-12-03T21:30:00Z,26.1914,-97.0507,2.0,202.5333424,15.83924872,-99999.0,'11111222,11111222,99999999' 
TABS,ioos:station:wmo:42044:1,2001-12-03T22:00:00Z,26.1914,-97.0507,2.0,198.5951868,14.6761882,-99999.0,'11111222,11111222,99999999' 
TABS,ioos:station:wmo:42044:1,2001-12-03T22:30:00Z,26.1914,-97.0507,2.0,202.7771078,16.78929421,-99999.0,'11111222,11111222,99999999' 
TABS,ioos:station:wmo:42044:1,2001-12-03T23:00:00Z,26.1914,-97.0507,2.0,194.2596086,16.15784639,-99999.0,'11111222,11111222,99999999' 
TABS,ioos:station:wmo:42044:1,2001-12-03T23:30:00Z,26.1914,-97.0507,2.0,188.7569848,15.76376858,-99999.0,'11111222,11111222,99999999' 
TABS,ioos:station:wmo:42044:1,2001-12-04T00:00:00Z,26.1914,-97.0507,2.0,192.0513943,14.84723543,-99999.0,'11111222,11111222,99999999' 
TABS,ioos:station:wmo:42044:1,2001-12-04T00:30:00Z,26.1914,-97.0507,2.0,185.9186825,12.3156567,-99999.0,'11111222,11111222,99999999' 
TABS,ioos:station:wmo:42044:1,2001-12-04T01:00:00Z,26.1914,-97.0507,2.0,177.4834834,11.16076162,-99999.0,'11111222,11111222,99999999' 
TABS,ioos:station:wmo:42044:1,2001-12-04T01:30:00Z,26.1914,-97.0507,2.0,164.7090273,9.859011107,-99999.0,'11133222,11111222,99999999' 
TABS,ioos:station:wmo:42044:1,2001-12-04T02:00:00Z,26.1914,-97.0507,2.0,191.2417113,14.87541932,-99999.0,'11111222,11111222,99999999' 
TABS,ioos:station:wmo:42044:1,2001-12-04T02:30:00Z,26.1914,-97.0507,2.0,199.7862474,12.20029918,-99999.0,'11111222,11111222,99999999' 
TABS,ioos:station:wmo:42044:1,2001-12-04T03:00:00Z,26.1914,-97.0507,2.0,203.2433106,10.03444069,-99999.0,'11111222,11111222,99999999' 
TABS,ioos:station:wmo:42044:1,2001-12-04T03:30:00Z,26.1914,-97.0507,2.0,218.0217219,13.32869461,-99999.0,'11111222,11111222,99999999' 
TABS,ioos:station:wmo:42044:1,2001-12-04T04:00:00Z,26.1914,-97.0507,2.0,212.2621449,11.57741336,-99999.0,'11111222,11111222,99999999' 
TABS,ioos:station:wmo:42044:1,2001-12-04T04:30:00Z,26.1914,-97.0507,2.0,216.3001297,9.256457206,-99999.0,'11133222,11111222,99999999' 
TABS,ioos:station:wmo:42044:1,2001-12-04T05:00:00Z,26.1914,-97.0507,2.0,224.9996843,10.45103823,-99999.0,'11111222,11111222,99999999' 
TABS,ioos:station:wmo:42044:1,2001-12-04T05:30:00Z,26.1914,-97.0507,2.0,231.4420936,7.877417089,-99999.0,'11133222,11111222,99999999' 
TABS,ioos:station:wmo:42044:1,2001-12-04T06:00:00Z,26.1914,-97.0507,2.0,236.7157662,6.651022478,-99999.0,'11133222,11111222,99999999' 
TABS,ioos:station:wmo:42044:1,2001-12-04T06:30:00Z,26.1914,-97.0507,2.0,258.6036178,6.528713503,-99999.0,'11133222,11111222,99999999' 
TABS,ioos:station:wmo:42044:1,2001-12-04T07:00:00Z,26.1914,-97.0507,2.0,246.0642748,6.433234023,-99999.0,'11133222,11111222,99999999' 
TABS,ioos:station:wmo:42044:1,2001-12-04T07:30:00Z,26.1914,-97.0507,2.0,255.9221486,6.742492121,-99999.0,'11133222,11111222,99999999' 
TABS,ioos:station:wmo:42044:1,2001-12-04T08:00:00Z,26.1914,-97.0507,2.0,282.9950073,7.337915235,-99999.0,'11133222,11111222,99999999' 
TABS,ioos:station:wmo:42044:1,2001-12-04T08:30:00Z,26.1914,-97.0507,2.0,333.5499272,4.467672772,-99999.0,'11133222,11111222,99999999' 
TABS,ioos:station:wmo:42044:1,2001-12-04T09:00:00Z,26.1914,-97.0507,2.0,282.9415765,2.411244492,-99999.0,'11133222,11111222,99999999' 
TABS,ioos:station:wmo:42044:1,2001-12-04T09:30:00Z,26.1914,-97.0507,2.0,345.6541105,4.035851831,-99999.0,'11133222,11111222,99999999' 
TABS,ioos:station:wmo:42044:1,2001-12-04T10:00:00Z,26.1914,-97.0507,2.0,28.61060322,4.009588508,-99999.0,'11133222,11111222,99999999' 
TABS,ioos:station:wmo:42044:1,2001-12-04T10:30:00Z,26.1914,-97.0507,2.0,21.80156896,4.73894503,-99999.0,'11133222,11111222,99999999' 
TABS,ioos:station:wmo:42044:1,2001-12-04T11:00:00Z,26.1914,-97.0507,2.0,29.7829789,3.744609459,-99999.0,'11133222,11111222,99999999' 
TABS,ioos:station:wmo:42044:1,2001-12-04T11:30:00Z,26.1914,-97.0507,2.0,13.35778005,5.324030428,-99999.0,'11133222,11111222,99999999' 
TABS,ioos:station:wmo:42044:1,2001-12-04T12:00:00Z,26.1914,-97.0507,2.0,22.87193632,4.37388843,-99999.0,'11133222,11111222,99999999' 
TABS,ioos:station:wmo:42044:1,2001-12-04T12:30:00Z,26.1914,-97.0507,2.0,41.34789099,2.997148645,-99999.0,'11133222,11111222,99999999' 
TABS,ioos:station:wmo:42044:1,2001-12-04T13:00:00Z,26.1914,-97.0507,2.0,50.56003949,4.816845441,-99999.0,'11133222,11111222,99999999' 
TABS,ioos:station:wmo:42044:1,2001-12-04T13:30:00Z,26.1914,-97.0507,2.0,81.40148229,5.016383159,-99999.0,'11133222,11111222,99999999' 
TABS,ioos:station:wmo:42044:1,2001-12-04T14:00:00Z,26.1914,-97.0507,2.0,80.68884218,7.478535953,-99999.0,'11133222,11111222,99999999' 
TABS,ioos:station:wmo:42044:1,2001-12-04T14:30:00Z,26.1914,-97.0507,2.0,77.20078717,5.055620635,-99999.0,'11133222,11111222,99999999' 
TABS,ioos:station:wmo:42044:1,2001-12-04T15:00:00Z,26.1914,-97.0507,2.0,89.48569025,5.570224412,-99999.0,'11133222,11111222,99999999' 
TABS,ioos:station:wmo:42044:1,2001-12-04T15:30:00Z,26.1914,-97.0507,2.0,106.6548987,7.431776369,-99999.0,'11133222,11111222,99999999' 
TABS,ioos:station:wmo:42044:1,2001-12-04T16:00:00Z,26.1914,-97.0507,2.0,109.0465798,7.1092053,-99999.0,'11133222,11111222,99999999' 
TABS,ioos:station:wmo:42044:1,2001-12-04T16:30:00Z,26.1914,-97.0507,2.0,96.30361302,6.921849464,-99999.0,'11133222,11111222,99999999' 
TABS,ioos:station:wmo:42044:1,2001-12-04T17:00:00Z,26.1914,-97.0507,2.0,90.41638544,6.880181684,-99999.0,'11133222,11111222,99999999' 
TABS,ioos:station:wmo:42044:1,2001-12-04T17:30:00Z,26.1914,-97.0507,2.0,94.84051448,5.569865348,-99999.0,'11133222,11111222,99999999' 